Weather in Sao Vicente

Brazil     23°57′02″S   46°23′52″W
temp.,
°C
wind,
m/s
gust,
m/s
humid.,
%
clouds,
%
prec.,
mm/h
press.,
hPa
HPBL,
m
26 october, tue
tue2600:00+18w22917 0.0 1020108
03:00+17w129136 0.0 101985
06:00+18wsw1189100 0.0 102096
09:00+22s227495 0.0 1021484
12:00+23sse337496 0.0 1020714
15:00+21sse2380100 0.0 1019632
18:00+20se1287100 0.1 1020246
21:00+19nnw008996 0.1 102140
27 october, wed
wed2700:00+20sw019095 0.0 102072
03:00+19w1192100 0.0 101970
06:00+19sw1192100 0.0 102076
09:00+22ese118047 0.1 1022412
12:00+23se227990 0.3 1021614
15:00+21sse2396100 1.0 1020335
18:00+21ese3599100 2.1 1021316
21:00+21ese3599100 7.9 1022284
28 october, thu
thu2800:00+21ese24100100 11.1 1021252
03:00+21ese2299100 16.1 1019155
06:00+21ese1199100 1.7 1020102
09:00+21ese0198100 3.5 102281
12:00+21ese2399100 4.1 1021203
15:00+20e3499100 9.6 1020286
18:00+20e3498100 6.2 1021300
21:00+20ese3598100 8.8 1021379
29 october, fri
fri2900:00+19ese4598100 4.9 1020390
03:00+19e3598100 11.6 1018349
06:00+19e2398100 4.1 1018271
09:00+20ese3498100 8.1 1019311
12:00+20se3498100 10.1 1019300
15:00+19sse4598100 16.9 1017374
18:00+19se3498100 5.2 1018331
21:00+19ese4998100 12.2 1019653
30 october, sat
sat3000:00+18e51097100 4.5 1017805
03:00+18e239596 4.7 1016288
06:00+19e3496100 0.3 1017307
09:00+19ese3596100 0.9 1019468
12:00+19ese4596100 1.2 1018450
15:00+19ese4597100 2.9 1017398
18:00+19e4696100 1.6 1017540
21:00+19e4697100 2.5 1017510